Location: Cluny
(50.9333°N, 112.8167°W)
Time: 03:57:48
(UTC-06:00)

Amateur Radio Satellites - All Passes

Search period start: 26 April 2017 03:27
Search period end: 27 April 2017 03:27
Location: Cluny, 50.9333°N, 112.8167°W

Satellite Date Start Highest point End Downlink Frequencies (MHz)
Time Altitude Azimuth
KKS-1 26 Apr 03:36:40 03:39:19 16° 56° (NE) 03:41:57 437.445
ITAMSAT 1 26 Apr 03:51:18 03:54:57 19° 90° (E) 03:58:35 435.822/435.867
ITUPSAT 1 26 Apr 03:56:16 04:00:54 52° 259° (W) 04:05:34 437.325
Gurwin Techsat 1B 26 Apr 04:01:00 04:06:21 75° 288° (WNW) 04:11:39 435.225
Oscar 19 26 Apr 04:05:48 04:10:45 44° 294° (WNW) 04:15:40 437.125/150
CUBESAT XI-V 26 Apr 04:06:19 04:10:05 25° 61° (ENE) 04:13:54 437.345
STARS 26 Apr 04:10:38 04:13:11 15° 56° (NE) 04:15:44 437.465
NO-84 26 Apr 04:21:51 04:22:37 11° 229° (SW) 04:23:24 435.350 FM
PCSat 26 Apr 04:42:13 04:47:36 60° 313° (NW) 04:53:00 145.827
MOZHAYETS 4 26 Apr 04:54:19 04:58:20 30° 265° (W) 05:02:23
AO-7 26 Apr 04:54:38 05:02:43 51° 101° (ESE) 05:10:45 .
BEESAT 26 Apr 04:55:57 04:59:01 17° 271° (W) 05:02:06 436.000
YUBILEINY 26 Apr 04:57:38 05:05:55 52° 89° (E) 05:14:15 435.215
KKS-1 26 Apr 05:10:47 05:15:16 86° 253° (WSW) 05:19:47 437.445
ITAMSAT 1 26 Apr 05:29:48 05:34:59 73° 289° (WNW) 05:40:08 435.822/435.867
M-CUBED/EXP-1 PRIME 26 Apr 05:30:42 05:31:25 10° 43° (NE) 05:32:09 437.505
Gurwin Techsat 1B 26 Apr 05:42:23 05:45:28 16° 309° (NW) 05:48:32 435.225
CUBESAT XI-V 26 Apr 05:42:40 05:47:12 50° 261° (W) 05:51:48 437.345
STARS 26 Apr 05:44:30 05:48:56 85° 256° (WSW) 05:53:22 437.465
STRAND 1 26 Apr 06:04:03 06:06:38 14° 51° (NE) 06:09:14 437.568
PCSat 26 Apr 06:28:03 06:32:07 21° 336° (NNW) 06:36:11 145.827
XW-2B 26 Apr 06:31:34 06:32:40 11° 87° (E) 06:33:45 145.730 - 145.750
CUTE-I 26 Apr 06:34:03 06:36:59 15° 86° (E) 06:39:55 437.470
LilacSat-2 26 Apr 06:40:50 06:43:05 15° 89° (E) 06:45:19 437.200
KAITUO 1B 26 Apr 06:42:25 06:43:49 12° 88° (E) 06:45:13 145.475/437.950
XW-2C 26 Apr 06:42:30 06:44:43 15° 89° (E) 06:46:55 145.795 - 145.815
AO-7 26 Apr 06:47:38 06:55:31 50° 303° (WNW) 07:03:24 .
KKS-1 26 Apr 06:50:53 06:52:32 12° 274° (W) 06:54:10 437.445
YUBILEINY 26 Apr 06:54:40 07:02:55 45° 293° (WNW) 07:11:14 435.215
M-CUBED/EXP-1 PRIME 26 Apr 07:00:23 07:04:49 46° 62° (ENE) 07:09:18 437.505
DOVE 4 26 Apr 07:07:32 07:12:04 43° 97° (E) 07:16:19 437.250
XW-2F 26 Apr 07:07:45 07:10:57 25° 94° (E) 07:14:08 145.980 - 146.000
ITAMSAT 1 26 Apr 07:10:46 07:13:37 15° 309° (NW) 07:16:27 435.822/435.867
NUDT-PHONESAT 26 Apr 07:21:02 07:24:18 28° 95° (E) 07:27:34 437.300
STARS 26 Apr 07:24:29 07:25:58 11° 274° (W) 07:27:27 437.465
RS-15 26 Apr 07:27:51 07:38:14 36° 105° (ESE) 07:48:47 29.354- 29.394
SO-50 26 Apr 07:28:18 07:32:28 35° 120° (ESE) 07:36:38 436.795
STRAND 1 26 Apr 07:39:53 07:44:58 70° 71° (ENE) 07:50:04 437.568
XW-2D 26 Apr 07:56:38 08:00:28 90° 115° (ESE) 08:04:18 145.860 - 145.880
XW-2B 26 Apr 08:03:35 08:07:24 79° 283° (WNW) 08:11:13 145.730 - 145.750
CUTE-I 26 Apr 08:12:29 08:17:51 86° 105° (ESE) 08:23:11 437.470
LilacSat-2 26 Apr 08:13:56 08:17:44 58° 287° (WNW) 08:21:30 437.200
KAITUO 1B 26 Apr 08:14:33 08:18:19 73° 286° (WNW) 08:22:04 145.475/437.950
PCSat 26 Apr 08:14:39 08:17:38 15° 2° (N) 08:20:36 145.827
XW-2C 26 Apr 08:15:31 08:19:17 58° 287° (WNW) 08:23:01 145.795 - 145.815
HO-68 26 Apr 08:28:51 08:35:29 38° 96° (E) 08:42:04 435.675
M-CUBED/EXP-1 PRIME 26 Apr 08:35:21 08:39:22 29° 260° (W) 08:43:26 437.505
AO-7 26 Apr 08:41:27 08:46:27 18° 327° (NNW) 08:51:27 .
AAUSAT CUBESAT 2 26 Apr 08:41:32 08:43:57 15° 88° (E) 08:46:20 437.432
XW-2F 26 Apr 08:41:43 08:45:08 32° 292° (WNW) 08:48:33 145.980 - 146.000
CUTE 1.7 + AOD 2 26 Apr 08:45:17 08:49:24 43° 98° (E) 08:53:30 437.475
DOVE 4 26 Apr 08:45:32 08:49:35 28° 298° (WNW) 08:53:24 437.250
NUDT-PHONESAT 26 Apr 08:54:59 08:58:11 28° 294° (WNW) 09:01:23 437.300
ZACube-1 26 Apr 08:55:58 08:57:05 11° 86° (E) 08:58:12 437.345
YUBILEINY 26 Apr 08:58:50 09:02:40 13° 321° (NW) 09:06:31 435.215
AO-73 26 Apr 09:02:46 09:04:19 12° 87° (E) 09:05:53 145.935
SEEDS 26 Apr 09:06:17 09:10:26 47° 99° (E) 09:14:33 437.485
SO-50 26 Apr 09:08:26 09:12:52 46° 320° (NW) 09:17:16 436.795
XW-2A 26 Apr 09:12:31 09:15:54 89° 286° (WNW) 09:19:16 145.665 - 145.685
FO-29 26 Apr 09:13:00 09:17:14 21° 56° (NE) 09:21:13 435.910
Oscar 11 26 Apr 09:18:18 09:20:47 15° 88° (E) 09:23:17 .
STRAND 1 26 Apr 09:21:00 09:24:40 20° 270° (W) 09:28:20 437.568
XW-2D 26 Apr 09:32:44 09:34:04 12° 303° (WNW) 09:35:23 145.860 - 145.880
UWE-3 26 Apr 09:33:24 09:37:21 40° 98° (E) 09:41:20 435.000/436.395/437.385
Tancredo 1 26 Apr 09:37:14 09:39:36 20° 144° (SE) 09:41:58 437.200
RS-15 26 Apr 09:37:16 09:49:30 87° 310° (NW) 10:02:00 29.354- 29.394
XW-2B 26 Apr 09:40:19 09:40:55 10° 304° (NW) 09:41:32 145.730 - 145.750
PRISM 26 Apr 09:44:29 09:48:28 46° 69° (ENE) 09:52:29 437.425
CUBEBUG 2 26 Apr 09:45:28 09:49:39 83° 106° (ESE) 09:53:51 437.445
TIGRISAT 26 Apr 09:48:00 09:51:48 30° 65° (ENE) 09:55:35 435.000
CUTE-I 26 Apr 09:53:35 09:57:17 19° 306° (NW) 10:00:57 437.470
ISS 26 Apr 09:54:32 09:57:11 23° 145° (SE) 09:59:50 437.550
PCSat 26 Apr 09:58:42 10:03:02 23° 28° (NNE) 10:07:22 145.827
UNISAT 6 26 Apr 10:08:36 10:12:48 49° 70° (ENE) 10:16:59 437.425
AAUSAT CUBESAT 2 26 Apr 10:15:41 10:19:52 69° 288° (WNW) 10:24:03 437.432
HO-68 26 Apr 10:16:30 10:23:30 56° 297° (WNW) 10:30:28 435.675
OBJECT BX 26 Apr 10:18:42 10:20:17 12° 89° (E) 10:21:51 145.990 - 145.960
O/OREOS (USA 219) 26 Apr 10:20:51 10:23:20 15° 99° (E) 10:25:49 437.305
CUTE 1.7 + AOD 2 26 Apr 10:21:32 10:25:02 25° 297° (WNW) 10:28:32 437.475
ZACube-1 26 Apr 10:29:48 10:34:01 88° 96° (E) 10:38:17 437.345
QB50P2 26 Apr 10:35:46 10:37:14 12° 54° (NE) 10:38:42 145.880/145.840
AO-73 26 Apr 10:36:57 10:41:10 87° 281° (W) 10:45:25 145.935
SEEDS 26 Apr 10:42:31 10:45:52 23° 298° (WNW) 10:49:13 437.485
SO-50 26 Apr 10:51:15 10:54:24 18° 343° (NNW) 10:57:30 436.795
AIST 2D 26 Apr 10:51:31 10:53:55 18° 63° (ENE) 10:56:20 435.315
Oscar 11 26 Apr 10:53:05 10:57:27 73° 286° (WNW) 11:01:46 .
FO-29 26 Apr 10:55:38 11:01:52 83° 255° (WSW) 11:07:26 435.910
NANOSAT C BR1 26 Apr 10:56:58 10:59:26 15° 57° (ENE) 11:01:53 145.865
DELFI C3 26 Apr 11:03:39 11:07:34 49° 99° (E) 11:11:27 145.870
UWE-3 26 Apr 11:10:14 11:13:40 25° 296° (WNW) 11:17:07 435.000/436.395/437.385
Tancredo 1 26 Apr 11:12:04 11:15:10 73° 162° (SSE) 11:18:16 437.200
PRISM 26 Apr 11:20:45 11:23:59 22° 267° (W) 11:27:15 437.425
EO-79 26 Apr 11:23:09 11:26:42 27° 64° (ENE) 11:30:16 145.935-145.965
CUBEBUG 2 26 Apr 11:23:34 11:25:43 14° 303° (WNW) 11:27:53 437.445
TIGRISAT 26 Apr 11:24:28 11:28:28 34° 264° (W) 11:32:24 435.000
DUCHIFAT 1 26 Apr 11:25:51 11:29:14 24° 63° (ENE) 11:32:37 145.980
ISS 26 Apr 11:30:05 11:33:20 78° 164° (SSE) 11:36:36 437.550
PCSat 26 Apr 11:41:53 11:47:21 74° 51° (NE) 11:52:47 145.827
UNISAT 6 26 Apr 11:46:28 11:49:47 21° 268° (W) 11:53:06 437.425
OBJECT BX 26 Apr 11:50:45 11:54:24 65° 286° (WNW) 11:58:02 145.990 - 145.960
RS-15 26 Apr 11:51:56 12:03:45 48° 341° (NNW) 12:15:35 29.354- 29.394
AAUSAT CUBESAT 2 26 Apr 11:53:37 11:54:33 11° 306° (NW) 11:55:30 437.432
O/OREOS (USA 219) 26 Apr 11:57:28 12:02:04 84° 295° (WNW) 12:06:44 437.305
POLYITAN 1 26 Apr 12:01:34 12:05:43 61° 72° (ENE) 12:09:53 437.675
HO-68 26 Apr 12:05:34 12:09:48 17° 319° (NW) 12:14:03 435.675
ZACube-1 26 Apr 12:07:38 12:09:44 14° 303° (WNW) 12:11:50 437.345
QB50P2 26 Apr 12:08:05 12:12:18 75° 73° (ENE) 12:16:32 145.880/145.840
Oscar 19 26 Apr 12:11:57 12:14:54 15° 52° (NE) 12:17:50 437.125/150
Gurwin Techsat 1B 26 Apr 12:12:48 12:13:58 11° 46° (NE) 12:15:08 435.225
ESTCUBE 1 26 Apr 12:13:14 12:16:50 23° 92° (E) 12:20:26 437.505/2401.250
AO-73 26 Apr 12:14:54 12:16:46 13° 304° (NW) 12:18:41 145.935
AO-7 26 Apr 12:21:51 12:25:00 13° 22° (NNE) 12:28:10 .
AIST 2D 26 Apr 12:23:34 12:26:53 41° 262° (W) 12:30:13 435.315
BUGSAT 1 26 Apr 12:28:41 12:32:27 35° 67° (ENE) 12:36:11 437.445
NANOSAT C BR1 26 Apr 12:30:24 12:34:37 77° 258° (WSW) 12:38:50 145.865
Oscar 11 26 Apr 12:31:16 12:32:49 12° 306° (NW) 12:34:21 .
SO-50 26 Apr 12:33:49 12:36:32 15° 8° (N) 12:39:14 436.795
DELFI C3 26 Apr 12:39:05 12:42:04 20° 298° (WNW) 12:45:02 145.870
FO-29 26 Apr 12:44:19 12:47:42 15° 273° (W) 12:50:56 435.910
Tancredo 1 26 Apr 12:48:00 12:51:06 76° 2° (N) 12:54:13 437.200
LO-87 26 Apr 12:55:45 12:59:21 78° 285° (WNW) 13:02:54 145.935 - 145.965
EO-79 26 Apr 12:58:24 13:02:21 38° 262° (W) 13:06:19 145.935-145.965
DUCHIFAT 1 26 Apr 13:00:43 13:04:42 42° 261° (W) 13:08:43 145.980
ISS 26 Apr 13:06:36 13:09:52 78° 4° (N) 13:13:08 437.550
YUBILEINY 26 Apr 13:07:24 13:08:30 10° 33° (NNE) 13:09:37 435.215
AO-85 26 Apr 13:09:18 13:12:25 20° 116° (ESE) 13:15:26 145.980
DX 1 26 Apr 13:21:58 13:24:06 13° 88° (E) 13:26:13 434.975-435.025
PCSat 26 Apr 13:26:03 13:30:14 23° 251° (WSW) 13:34:24 145.827
50 SAT 26 Apr 13:32:24 13:35:07 21° 93° (E) 13:37:49 437.505
SPROUT 26 Apr 13:32:43 13:36:40 36° 97° (E) 13:40:36 437.525
O/OREOS (USA 219) 26 Apr 13:39:09 13:42:15 17° 320° (NW) 13:45:21 437.305
POLYITAN 1 26 Apr 13:39:09 13:41:54 17° 270° (W) 13:44:39 437.675
ITAMSAT 1 26 Apr 13:39:32 13:40:22 10° 46° (NE) 13:41:13 435.822/435.867
QB50P2 26 Apr 13:46:27 13:48:37 14° 272° (W) 13:50:48 145.880/145.840
Gurwin Techsat 1B 26 Apr 13:47:39 13:52:44 49° 67° (ENE) 13:57:51 435.225
Oscar 19 26 Apr 13:48:14 13:53:23 75° 72° (ENE) 13:58:36 437.125/150
ESTCUBE 1 26 Apr 13:49:30 13:53:55 50° 291° (WNW) 13:58:19 437.505/2401.250
BEESAT 3 26 Apr 13:53:45 13:54:55 11° 110° (ESE) 13:56:04 437.485
VELOX 1 26 Apr 14:03:45 14:08:13 76° 104° (ESE) 14:12:38 145.980
BUGSAT 1 26 Apr 14:04:18 14:07:51 28° 265° (W) 14:11:25 437.445
RS-15 26 Apr 14:07:49 14:19:37 46° 14° (NNE) 14:31:09 29.354- 29.394
AO-7 26 Apr 14:08:15 14:15:16 32° 48° (NE) 14:22:17 .
SO-50 26 Apr 14:14:21 14:18:22 30° 32° (NNE) 14:22:22 436.795
Tancredo 1 26 Apr 14:23:57 14:26:59 52° 203° (SSW) 14:30:01 437.200
UKube-1 26 Apr 14:24:13 14:28:14 36° 97° (E) 14:32:12 .
ISS 26 Apr 14:43:07 14:46:18 49° 204° (SSW) 14:49:27 437.550
AO-85 26 Apr 14:48:21 14:52:29 61° 315° (NW) 14:56:26 145.980
DX 1 26 Apr 14:56:30 15:00:53 82° 288° (WNW) 15:05:15 434.975-435.025
YUBILEINY 26 Apr 15:01:00 15:08:53 35° 62° (ENE) 15:16:44 435.215
50 SAT 26 Apr 15:04:58 15:08:09 33° 292° (WNW) 15:11:19 437.505
SPROUT 26 Apr 15:08:51 15:12:29 28° 296° (WNW) 15:16:06 437.525
BEESAT 26 Apr 15:12:38 15:14:45 13° 86° (E) 15:16:51 436.000
ITAMSAT 1 26 Apr 15:13:43 15:18:42 48° 66° (ENE) 15:23:41 435.822/435.867
BEESAT 2 26 Apr 15:26:38 15:30:15 34° 121° (ESE) 15:33:56 435.950
BEESAT 3 26 Apr 15:27:49 15:31:47 79° 129° (SE) 15:35:49 437.485
Gurwin Techsat 1B 26 Apr 15:28:16 15:32:54 30° 266° (W) 15:37:34 435.225
Oscar 19 26 Apr 15:29:45 15:33:18 19° 271° (W) 15:36:54 437.125/150
VELOX 1 26 Apr 15:41:17 15:44:09 17° 303° (WNW) 15:46:59 145.980
ITUPSAT 1 26 Apr 15:51:41 15:55:46 27° 94° (E) 15:59:50 437.325
SO-50 26 Apr 15:54:41 15:59:09 63° 234° (SW) 16:03:36 436.795
AO-7 26 Apr 15:59:00 16:07:19 83° 251° (WSW) 16:15:41 .
UKube-1 26 Apr 16:00:24 16:04:11 30° 296° (WNW) 16:07:56 .
Tancredo 1 26 Apr 16:00:51 16:02:22 13° 221° (SW) 16:03:53 437.200
ISS 26 Apr 16:20:46 16:22:11 12° 222° (SW) 16:23:37 437.550
RS-15 26 Apr 16:21:44 16:34:11 79° 45° (NE) 16:46:06 29.354- 29.394
AO-85 26 Apr 16:30:55 16:33:37 17° 337° (NNW) 16:36:17 145.980
DX 1 26 Apr 16:34:19 16:36:23 13° 306° (NW) 16:38:27 434.975-435.025
DOVE 4 26 Apr 16:42:00 16:45:00 16° 54° (NE) 16:47:57 437.250
MOZHAYETS 4 26 Apr 16:43:20 16:47:44 43° 98° (E) 16:52:09
BEESAT 26 Apr 16:48:28 16:53:16 85° 105° (ESE) 16:58:03 436.000
ITAMSAT 1 26 Apr 16:53:53 16:58:22 29° 266° (W) 17:02:53 435.822/435.867
YUBILEINY 26 Apr 16:57:44 17:06:24 69° 266° (W) 17:15:05 435.215
KKS-1 26 Apr 16:58:17 17:00:18 13° 87° (E) 17:02:18 437.445
BEESAT 2 26 Apr 17:04:13 17:07:59 38° 321° (NW) 17:11:49 435.950
BEESAT 3 26 Apr 17:06:36 17:09:50 23° 330° (NNW) 17:13:06 437.485
XW-2D 26 Apr 17:11:26 17:12:31 11° 57° (ENE) 17:13:37 145.860 - 145.880
XW-2B 26 Apr 17:17:48 17:19:24 12° 58° (ENE) 17:21:00 145.730 - 145.750
HO-68 26 Apr 17:19:41 17:23:16 15° 38° (NE) 17:26:52 435.675
KAITUO 1B 26 Apr 17:27:35 17:29:14 13° 58° (ENE) 17:30:54 145.475/437.950
LilacSat-2 26 Apr 17:27:45 17:30:07 16° 61° (ENE) 17:32:30 437.200
XW-2C 26 Apr 17:28:53 17:31:11 16° 60° (ENE) 17:33:30 145.795 - 145.815
ITUPSAT 1 26 Apr 17:29:13 17:33:47 45° 293° (WNW) 17:38:19 437.325
STARS 26 Apr 17:30:36 17:32:20 12° 87° (E) 17:34:03 437.465
CUBESAT XI-V 26 Apr 17:34:05 17:38:12 29° 94° (E) 17:42:17 437.345
XW-2F 26 Apr 17:53:29 17:56:35 25° 65° (ENE) 17:59:43 145.980 - 146.000
AO-7 26 Apr 17:55:19 18:01:20 22° 272° (W) 18:07:25 .
CUTE-I 26 Apr 18:00:02 18:04:59 40° 64° (ENE) 18:09:56 437.470
NUDT-PHONESAT 26 Apr 18:05:10 18:08:18 27° 66° (ENE) 18:11:29 437.300
AO-85 26 Apr 18:14:19 18:15:35 11° 2° (N) 18:16:50 145.980
DOVE 4 26 Apr 18:16:37 18:21:55 76° 73° (ENE) 18:27:06 437.250
MOZHAYETS 4 26 Apr 18:20:50 18:24:44 28° 297° (WNW) 18:28:38
BEESAT 26 Apr 18:27:25 18:30:27 17° 305° (NW) 18:33:28 436.000
KKS-1 26 Apr 18:33:02 18:37:31 87° 286° (WNW) 18:41:56 437.445
RS-15 26 Apr 18:34:53 18:45:48 41° 252° (WSW) 18:56:19 29.354- 29.394
XW-2D 26 Apr 18:42:21 18:46:06 88° 76° (ENE) 18:49:53 145.860 - 145.880
BEESAT 2 26 Apr 18:44:33 18:46:49 14° 344° (NNW) 18:49:05 435.950
O/OREOS (USA 219) 26 Apr 18:45:00 18:47:38 15° 37° (NE) 18:50:14 437.305
BEESAT 3 26 Apr 18:47:16 18:48:49 12° 353° (N) 18:50:21 437.485
XW-2B 26 Apr 18:49:18 18:53:02 80° 258° (WSW) 18:56:50 145.730 - 145.750
YUBILEINY 26 Apr 18:56:28 19:01:30 17° 289° (WNW) 19:06:34 435.215
KAITUO 1B 26 Apr 18:59:02 19:02:43 76° 257° (WSW) 19:06:27 145.475/437.950
LilacSat-2 26 Apr 19:00:18 19:04:01 57° 259° (W) 19:07:45 437.200
XW-2C 26 Apr 19:01:18 19:04:59 58° 259° (W) 19:08:43 145.795 - 145.815
HO-68 26 Apr 19:02:36 19:09:22 48° 61° (ENE) 19:16:11 435.675
STARS 26 Apr 19:04:56 19:09:20 89° 307° (NW) 19:13:42 437.465
CUBESAT XI-V 26 Apr 19:11:15 19:15:43 42° 292° (WNW) 19:20:08 437.345
CUBEBUG 2 26 Apr 19:13:25 19:16:15 18° 60° (ENE) 19:19:03 437.445
XW-2F 26 Apr 19:27:17 19:30:38 31° 264° (W) 19:34:02 145.980 - 146.000
AAUSAT CUBESAT 2 26 Apr 19:36:14 19:39:14 20° 61° (ENE) 19:42:15 437.432
NUDT-PHONESAT 26 Apr 19:39:01 19:42:12 28° 265° (W) 19:45:24 437.300
CUTE-I 26 Apr 19:40:07 19:45:04 37° 263° (W) 19:50:02 437.470
CUTE 1.7 + AOD 2 26 Apr 19:42:23 19:46:32 57° 71° (ENE) 19:50:43 437.475
STRAND 1 26 Apr 19:46:21 19:49:30 16° 88° (E) 19:52:38 437.568
XW-2A 26 Apr 19:48:17 19:51:37 67° 74° (ENE) 19:54:58 145.665 - 145.685
AO-85 26 Apr 19:54:33 19:57:28 19° 27° (NNE) 20:00:25 145.980
ZACube-1 26 Apr 19:55:51 19:58:34 17° 60° (ENE) 20:01:17 437.345
DOVE 4 26 Apr 19:56:23 20:00:06 19° 272° (W) 20:03:47 437.250
SEEDS 26 Apr 20:02:23 20:06:31 61° 72° (ENE) 20:10:42 437.485
AO-73 26 Apr 20:02:35 20:05:24 18° 60° (ENE) 20:08:13 145.935
M-CUBED/EXP-1 PRIME 26 Apr 20:10:13 20:12:26 14° 92° (E) 20:14:34 437.505
KKS-1 26 Apr 20:11:04 20:13:24 14° 305° (NW) 20:15:44 437.445
Oscar 11 26 Apr 20:17:34 20:20:52 22° 61° (ENE) 20:24:12 .
O/OREOS (USA 219) 26 Apr 20:23:23 20:27:59 66° 60° (ENE) 20:32:31 437.305
BEESAT 2 26 Apr 20:24:34 20:26:13 12° 8° (N) 20:27:53 435.950
BEESAT 3 26 Apr 20:25:44 20:28:01 14° 17° (NNE) 20:30:19 437.485
UWE-3 26 Apr 20:34:57 20:39:06 60° 73° (ENE) 20:43:14 435.000/436.395/437.385
STARS 26 Apr 20:42:44 20:45:03 14° 305° (NW) 20:47:22 437.465
CUBEBUG 2 26 Apr 20:48:10 20:52:28 66° 258° (WSW) 20:56:42 437.445
HO-68 26 Apr 20:50:24 20:57:10 45° 262° (W) 21:04:02 435.675
OBJECT BX 26 Apr 21:01:41 21:03:23 13° 59° (ENE) 21:05:06 145.990 - 145.960
AAUSAT CUBESAT 2 26 Apr 21:10:16 21:14:20 55° 260° (W) 21:18:28 437.432
NO-84 26 Apr 21:17:31 21:20:57 46° 146° (SSE) 21:24:07 435.350 FM
CUTE 1.7 + AOD 2 26 Apr 21:19:50 21:22:44 18° 270° (W) 21:25:40 437.475
STRAND 1 26 Apr 21:24:12 21:29:20 83° 288° (WNW) 21:34:27 437.568
XW-2A 26 Apr 21:24:24 21:24:48 10° 272° (W) 21:25:13 145.665 - 145.685
ZACube-1 26 Apr 21:30:17 21:34:27 65° 259° (W) 21:38:35 437.345
AO-85 26 Apr 21:34:29 21:38:26 82° 48° (NE) 21:42:30 145.980
AO-73 26 Apr 21:37:09 21:41:16 60° 260° (W) 21:45:23 145.935
SEEDS 26 Apr 21:39:54 21:42:36 17° 271° (W) 21:45:21 437.485
M-CUBED/EXP-1 PRIME 26 Apr 21:43:09 21:47:30 76° 292° (WNW) 21:51:28 437.505
Oscar 11 26 Apr 21:52:31 21:56:43 51° 260° (W) 22:00:56 .
DELFI C3 26 Apr 21:53:28 21:57:23 55° 71° (ENE) 22:01:19 145.870
BEESAT 2 26 Apr 22:01:58 22:05:20 24° 31° (NNE) 22:08:42 435.950
BEESAT 3 26 Apr 22:02:48 22:06:38 40° 40° (NE) 22:10:27 437.485
O/OREOS (USA 219) 26 Apr 22:03:45 22:06:54 18° 259° (W) 22:10:01 437.305
LO-87 26 Apr 22:06:03 22:06:57 11° 57° (ENE) 22:07:51 145.935 - 145.965
UWE-3 26 Apr 22:13:13 22:15:58 17° 270° (W) 22:18:41 435.000/436.395/437.385
OBJECT BX 26 Apr 22:32:57 22:36:34 72° 257° (WSW) 22:40:14 145.990 - 145.960
NO-84 26 Apr 22:55:13 22:58:30 49° 344° (NNW) 23:01:32 435.350 FM
PRISM 26 Apr 22:55:53 22:59:46 36° 97° (E) 23:03:35 437.425
STRAND 1 26 Apr 23:04:41 23:07:49 16° 307° (NW) 23:10:55 437.568
TIGRISAT 26 Apr 23:10:17 23:14:08 32° 96° (E) 23:17:59 435.000
AO-85 26 Apr 23:16:09 23:18:18 14° 247° (WSW) 23:20:29 145.980
ESTCUBE 1 26 Apr 23:17:12 23:21:21 37° 66° (ENE) 23:25:32 437.505/2401.250
M-CUBED/EXP-1 PRIME 26 Apr 23:19:00 23:21:08 14° 313° (NW) 23:23:13 437.505
DELFI C3 26 Apr 23:29:52 23:32:30 17° 270° (W) 23:35:09 145.870
VELOX 1 26 Apr 23:30:51 23:33:57 19° 58° (ENE) 23:37:05 145.980
UNISAT 6 26 Apr 23:31:22 23:35:35 54° 100° (E) 23:39:49 437.425
LO-87 26 Apr 23:36:08 23:39:47 90° 288° (WNW) 23:43:27 145.935 - 145.965
BEESAT 2 26 Apr 23:39:28 23:43:32 74° 232° (SW) 23:47:34 435.950
BEESAT 3 26 Apr 23:40:33 23:44:11 33° 240° (WSW) 23:47:46 437.485
FO-29 26 Apr 23:43:51 23:48:56 52° 101° (E) 23:54:13 435.910
AIST 2D 26 Apr 23:45:32 23:46:22 11° 87° (E) 23:47:12 435.315
50 SAT 27 Apr 00:10:06 00:12:39 19° 63° (ENE) 00:15:13 437.505
NANOSAT C BR1 27 Apr 00:11:23 00:13:02 12° 87° (E) 00:14:41 145.865
DX 1 27 Apr 00:21:33 00:25:02 23° 61° (ENE) 00:28:30 434.975-435.025
SPROUT 27 Apr 00:30:28 00:34:38 53° 70° (ENE) 00:38:48 437.525
PRISM 27 Apr 00:31:22 00:34:56 28° 296° (WNW) 00:38:29 437.425
NO-84 27 Apr 00:33:24 00:36:24 38° 6° (N) 00:39:14 435.350 FM
EO-79 27 Apr 00:37:58 00:41:23 24° 93° (E) 00:44:47 145.935-145.965
DUCHIFAT 1 27 Apr 00:39:52 00:43:02 21° 92° (E) 00:46:12 145.980
TIGRISAT 27 Apr 00:47:02 00:50:50 32° 294° (WNW) 00:54:39 435.000
ESTCUBE 1 27 Apr 00:54:14 00:58:13 30° 265° (W) 01:02:15 437.505/2401.250
VELOX 1 27 Apr 01:05:31 01:09:58 68° 258° (WSW) 01:14:26 145.980
UNISAT 6 27 Apr 01:08:48 01:11:59 21° 299° (WNW) 01:15:11 437.425
AIST 2D 27 Apr 01:16:32 01:20:03 71° 286° (WNW) 01:23:33 435.315
POLYITAN 1 27 Apr 01:16:51 01:21:00 56° 101° (E) 01:25:07 437.675
BEESAT 2 27 Apr 01:19:38 01:20:33 11° 251° (WSW) 01:21:29 435.950
UKube-1 27 Apr 01:23:03 01:27:18 58° 71° (ENE) 01:31:35 .
QB50P2 27 Apr 01:23:28 01:27:40 70° 102° (ESE) 01:31:52 145.880/145.840
FO-29 27 Apr 01:29:32 01:33:52 27° 300° (WNW) 01:38:17 435.910
ITUPSAT 1 27 Apr 01:29:44 01:30:46 11° 49° (NE) 01:31:47 437.325
BUGSAT 1 27 Apr 01:40:25 01:43:56 28° 95° (E) 01:47:23 437.445
50 SAT 27 Apr 01:42:05 01:45:22 38° 262° (W) 01:48:41 437.505
NANOSAT C BR1 27 Apr 01:45:08 01:49:21 84° 284° (WNW) 01:53:32 145.865
Oscar 19 27 Apr 01:55:33 01:59:07 18° 89° (E) 02:02:40 437.125/150
DX 1 27 Apr 01:56:41 02:00:57 50° 260° (W) 02:05:14 434.975-435.025
Gurwin Techsat 1B 27 Apr 02:00:26 02:02:39 12° 84° (E) 02:04:52 435.225
SPROUT 27 Apr 02:07:44 02:10:51 19° 269° (W) 02:13:59 437.525
NO-84 27 Apr 02:11:06 02:14:07 82° 211° (SSW) 02:16:59 435.350 FM
EO-79 27 Apr 02:13:21 02:17:20 42° 292° (WNW) 02:21:17 145.935-145.965
DUCHIFAT 1 27 Apr 02:14:57 02:18:58 47° 291° (WNW) 02:22:59 145.980
MOZHAYETS 4 27 Apr 02:16:01 02:17:57 13° 53° (NE) 02:19:53
BEESAT 27 Apr 02:22:58 02:26:57 27° 61° (ENE) 02:30:56 436.000
PCSat 27 Apr 02:29:40 02:33:47 23° 109° (ESE) 02:37:56 145.827
POLYITAN 1 27 Apr 02:53:24 02:56:27 20° 300° (WNW) 02:59:29 437.675
QB50P2 27 Apr 03:00:20 03:03:00 17° 302° (WNW) 03:05:39 145.880/145.840
UKube-1 27 Apr 03:00:41 03:03:43 18° 269° (W) 03:06:45 .
ITUPSAT 1 27 Apr 03:02:58 03:07:37 56° 69° (ENE) 03:12:17 437.325
BUGSAT 1 27 Apr 03:15:42 03:19:19 32° 294° (WNW) 03:22:55 437.445
NANOSAT C BR1 27 Apr 03:22:35 03:24:24 13° 305° (NW) 03:26:12 145.865
ITAMSAT 1 27 Apr 03:23:59 03:25:09 11° 84° (E) 03:26:17 435.822/435.867
